DELTA 1 DEB, 10646

Orbit data source: Space-Track

DELTA 1 DEB, 10646 is space debris in SSO originally from a launch on Thu, 29 Jul 1976 UTC launched from the Air Force Western Test Range (AFWTR). Debris objects in space refer to the collection of defunct objects orbiting the Earth. Examples of debris include non-operational satellites, rocket bodies, and fragments generated from explosions, collisions, or faulty payload assembly.

Loading next visibility...
Identifier
10646, 1976-077G
Orbit
SSO
Country
Flag of USUS
Related business
Manufacturer
Unknown
Mission
Spacecraft
Bus & Motor
Unknown
Mass
Unknown
Launch date (UTC)
1976-07-29 (50 years ago)
Launch vehicle
Unknown
Launch site
Air Force Western Test Range (AFWTR)
Object type
Payload
Rocket body
Debris
Shape & HBR
Unknown shape, 0.4 m
Radar Cross Section
Medium (>0.1 m² and <1 m²)

Expand to show TLE details & history
Last TLE update: 15 hours ago

TLE from 15 hours ago
0 DELTA 1 DEB
1 10646U 76077G   26255.60897608 -.00000033  00000-0  12067-3 0  9994
2 10646 102.6645 206.3822 0143347 215.1179 320.2012 12.14468706222942
Epoch: 2026-09-12T14:36Z
TLE epoch observation values (Epoch: 2026-09-12T14:36:55.533Z)
Latitude
5.53485°
Longitude
176.7769°
Altitude
1,531.289 km
Speed
7.139 km/s
True Right ascension
01h 50m 29s
True Declination
5° 30' 19"
Sunlit
Object was in full shadow at epoch
Visualization orbit readout
Latitude
Unknown
Longitude
Unknown
Altitude
Unknown
Speed
Unknown
Apparent Right ascension
Unknown
Apparent Declination
Unknown
Sunlit
N/A
Visualization observer readout
Local Sidereal Time
22:28:34
Azimuth
Unknown
Elevation
Unknown
Doppler factor
Unknown
Orbital elements
Apogee altitude
1,728.942 km
Perigee altitude
1,499.802 km
Semi-major axis
7,992.509 km
Eccentricity
0.01433
Inclination
102.6645°
RAAN
206.3822°
Arg. of periapsis
215.1179°
True anomaly
319.13515°
Mean anomaly
320.2012°
Eccentric anomaly
319.66965°
Mean motion
3.03752 °/min
Orbital period
118.52 mins
BSTAR
0.00012067
Loading maneuver chart data...
Computing Atmospheric mass density...
Loading historical data...
Loading historical data...
Loading historical data...
Loading historical data...
Loading historical data...
Loading historical data...
Loading historical data...

Documentation

Showing up to 5 results
|